星链-11097 [DTC] (STARLINK-11097 [DTC] )

导读

STARLINK-11097是美国太空探索技术公司星链星座的一颗卫星,于2024年5月14日发射入轨,属于星链低轨互联网星座的扩容卫星,旨在为全球提供高速卫星互联网服务,尤其覆盖偏远地区、海洋与航空等传统网络盲区,支撑星链网络持续扩容,提升服务覆盖范围与通信容量。

基本信息
目录编号:
59759
目录名称:
STARLINK-11097
国际标识:
2024-091G
轨道中心:
EARTH
卫星名称:
星链-11097 [DTC]
卫星全名:
星链-11097 [DTC] (STARLINK-11097 [DTC] )
卫星状态:
在轨 (已飞行850 天)
发射日期:
2024-05-14 UTC
国别 :
美国 (US)
星等 :
--
轨道信息
数据来源 国际轨道数据
星历时间: 2026-09-10T22:04:42+0800
15小时前
查看轨道信息
半长轴: 6737.882km
偏心率: 0.0001251
轨道倾角: 53.160°
近地点辐角 48.335°
升交点赤经 14.779°
平近点角 311.778°
近地点: 358.902km
远地点: 360.588km
周期: 91.737分钟
每日圈数: 15.697037
详细信息
固有亮度:
5
最大亮度:
0.6
卫星平台:
Starlink v2.0 mini
覆盖范围:
全球
运营商:
太空探索技术公司
运营商所在国:
美国
制造商(研发单位):
太空探索技术公司
制造商所在国:
美国
使用方式:
暂无
卫星简介
星链(Starlink)计划是由太空探索技术公司(SpaceX)提出的一个巨型低轨卫星互联网星座项目,计划在2019年至2024年间在太空搭建由约1.2万颗卫星组成的“星链”网络,其中1584颗将部署在地球上空550千米处的近地轨道,并从2020年开始工作。该卫星仍在工作。
2D轨道图
3D轨道图
轨道高度分析图
轨道倾角分析图
轨道综合分析图
查看轨道综合分析图
与全量物体交会距离演化趋势
与全量物体交会风险概率演化趋势